CDT,Max TemperatureF,Mean TemperatureF,Min TemperatureF,Max Dew PointF,MeanDew PointF,Min DewpointF,Max Humidity, Mean Humidity, Min Humidity, Max Sea Level PressureIn, Mean Sea Level PressureIn, Min Sea Level PressureIn, Max VisibilityMiles, Mean VisibilityMiles, Min VisibilityMiles, Max Wind SpeedMPH, Mean Wind SpeedMPH, Max Gust SpeedMPH,PrecipitationIn, CloudCover, Events, WindDirDegrees
2012-10-1,64,54,45,46,43,41,96,64,45,29.92,29.86,29.81,10,10,10,15,9,,0.00,0,,54
2012-10-2,70,59,50,54,49,45,89,71,42,29.90,29.84,29.80,10,10,6,17,10,,0.00,3,Rain,42
2012-10-3,70,62,55,57,54,46,100,87,46,30.07,29.96,29.88,10,6,1,15,8,,0.06,7,Rain,312
2012-10-4,79,62,48,57,52,46,100,83,47,30.18,30.11,30.04,10,9,2,22,11,,0.22,4,Rain,256
2012-10-5,47,43,37,47,40,32,100,86,71,30.24,30.20,30.16,10,8,2,15,9,,0.81,6,Rain-Thunderstorm,307
2012-10-6,46,39,32,32,29,27,89,66,52,30.25,30.22,30.17,10,10,9,18,12,,0.00,3,,304
2012-10-7,47,40,34,32,28,23,80,61,39,30.27,30.23,30.19,10,10,10,14,7,,0.00,4,,271
2012-10-8,57,43,30,34,29,24,82,63,36,30.23,30.16,30.07,10,10,10,20,10,,0.00,0,,203
2012-10-9,63,50,38,43,40,34,100,71,40,30.06,29.98,29.88,10,9,2,24,14,32,0.03,2,Rain,230
2012-10-10,52,43,34,43,32,27,100,68,37,30.25,30.16,30.00,10,10,6,22,11,,0.01,1,Rain,274
2012-10-11,63,48,34,41,33,29,82,59,34,30.25,30.20,30.12,10,10,10,23,12,,0.00,0,Rain,216
2012-10-12,59,48,38,39,33,30,89,60,33,30.43,30.34,30.24,10,10,10,17,13,,0.00,0,,73
2012-10-13,66,56,47,65,55,37,100,93,66,30.25,30.00,29.83,10,5,1,26,16,,0.91,5,Rain-Thunderstorm,189
2012-10-14,70,59,48,64,59,43,100,93,68,29.86,29.71,29.52,10,6,1,33,21,41,1.03,7,Rain,214
2012-10-15,61,51,43,42,40,36,93,70,44,30.01,29.96,29.88,10,10,7,15,10,,0.00,0,,285
2012-10-16,72,56,41,53,47,39,89,69,49,29.97,29.77,29.60,10,10,7,28,14,,0.00,0,,175
2012-10-17,63,57,52,61,55,48,100,89,65,29.60,29.47,29.32,10,7,0,26,17,38,0.61,5,Fog-Rain-Thunderstorm,216
2012-10-18,52,47,42,45,38,34,93,72,50,29.57,29.51,29.46,10,10,5,26,15,,0.03,3,Rain,234
2012-10-19,48,45,42,46,44,42,100,98,77,29.73,29.58,29.44,10,5,1,17,13,,0.54,8,Rain,256
2012-10-20,54,46,39,46,42,39,100,90,61,29.98,29.84,29.71,10,8,0,13,8,,0.00,5,Fog,264
2012-10-21,70,56,41,55,49,41,100,78,55,30.02,29.98,29.95,10,9,6,15,11,,0.00,0,,161
2012-10-22,66,62,57,64,60,54,100,92,72,30.02,29.94,29.89,10,9,1,24,12,,0.46,5,Rain-Thunderstorm,188
2012-10-23,72,64,59,63,60,57,97,86,73,29.95,29.91,29.88,10,10,4,21,12,,0.02,4,Rain-Thunderstorm,197
2012-10-24,77,67,57,66,61,56,93,80,66,29.97,29.91,29.86,10,10,10,22,15,,0.00,1,,195
2012-10-25,75,58,41,63,54,37,97,85,64,30.12,29.87,29.73,10,8,1,32,21,38,0.61,4,Rain-Thunderstorm,247
2012-10-26,46,41,36,33,31,29,79,69,56,30.37,30.31,30.17,10,10,7,24,16,,0.00,3,,350
2012-10-27,45,38,31,30,28,26,85,69,50,30.37,30.31,30.27,10,10,10,16,13,,0.00,0,,5
2012-10-28,48,40,32,35,29,26,82,70,46,30.31,30.28,30.24,10,10,10,17,11,,0.00,3,,14
2012-10-29,50,41,32,34,28,23,86,64,36,30.33,30.25,30.11,10,10,10,20,13,,0.00,0,,353
2012-10-30,46,40,34,26,24,22,68,54,38,30.09,29.93,29.85,10,10,10,29,19,37,0.00,1,,335
2012-10-31,47,38,30,29,24,18,75,58,36,29.95,29.92,29.87,10,10,10,20,14,,0.00,0,,311